Location: Barnston
(51.8500°N, 0.4000°E)
Time: 11:34:15
(UTC+00:00)

Cosmos 2266 Rocket - Pass Details

Date: 26 September 2023
Orbit: 933 x 1008 km, 82.9° (Epoch: 28 November)

Event Time Altitude Azimuth Distance (km) Brightness Sun altitude
Exits shadow 04:07:44 12° 206° (SSW) 2,561 5.8 -16.4°
Maximum altitude 04:13:28 60° 285° (WNW) 1,129 4.1 -15.5°
Drops below altitude 10° 04:19:49 10° 5° (N) 2,791 6.7 -14.6°
Sets 04:22:26 0° 9° (N) 3,750 7.4 -14.2°
